Showing default

QIANFAN-39, 62240

Orbit data source: Space-Track

QIANFAN-39, 62240 is a Chinese payload satellite in LEO that was launched on Thu, 05 Dec 2024 UTC via a CHANG ZHENG 6A launch vehicle from the Taiyaun Space Center, China (TSC). Payload-class satellites include a variety of spacecraft equipped with specific instruments for various scientific and technological missions. These include communications satellites like Starlink; space stations such as the ISS; scientific satellites like the Hubble; Earth observation satellites from companies like Planet Labs, Umbra, and HawkEye 360; GPS; miniature CubeSats for education and research; and military/defense satellites.

Loading next visibility...
Identifier
62240, 2024-232D
Orbit
LEO
Country
Flag of CNCN / PRC
Related business
Manufacturer
SECM
Mission
Operational Commercial Communications
Bus & Motor
QIANFAN, Unknown motor
Mass
267 kg wet, ~267 kg dry
Launch date (UTC)
2024-12-05 (10 months ago)
Launch vehicle
CHANG ZHENG 6A
Launch site
Taiyaun Space Center, China (TSC)
Object type
Payload
Rocket body
Debris
Shape & HBR
Box + 1 Pan, 5.0 m
Radar Cross Section
13.200 m², Large (>1 m²)

Expand to show TLE details & history
Last TLE update: 6 hours ago

TLE from 6 hours ago
0 QIANFAN-39
1 62240U 24232D   25288.57598656  .00000776  00000-0  32344-3 0  9992
2 62240  89.0022  43.9472 0014033 267.8214  92.1372 14.25290770 93101
Epoch: 2025-10-15T13:49Z
TLE epoch observation values (Epoch: 2025-10-15T13:49:25.238Z)
Latitude
-0.00005°
Longitude
172.24396°
Altitude
810.966 km
Speed
7.448 km/s
True Right ascension
02h 55m 47s
True Declination
0° 00' 00"
Sunlit
Object was in full shadow at epoch
Visualization orbit readout
Latitude
Unknown
Longitude
Unknown
Altitude
Unknown
Speed
Unknown
Apparent Right ascension
Unknown
Apparent Declination
Unknown
Sunlit
N/A
Visualization observer readout
Local Sidereal Time
14:55:38
Azimuth
Unknown
Elevation
Unknown
Doppler factor
Unknown
Orbital elements
Apogee altitude
814.538 km
Perigee altitude
794.379 km
Semi-major axis
7,182.596 km
Eccentricity
0.0014
Inclination
89.0022°
RAAN
43.9472°
Arg. of periapsis
267.8214°
True anomaly
92.29788°
Mean anomaly
92.1372°
Eccentric anomaly
92.21754°
Mean motion
3.5655 °/min
Orbital period
100.97 mins
BSTAR
0.00032344
Loading maneuver chart data...
Computing Atmospheric mass density...
Loading historical data...
Loading historical data...
Loading historical data...
Loading historical data...
Loading historical data...
Loading historical data...
Loading historical data...

Documentation

Showing up to 5 results
|